User: anonymous   Login
Location: Melbourne
(37.8170°S, 144.9670°E)
Time: 05:13:51
(UTC+10:00)
Language:

ERBS - Orbit

View from above orbital plane
View from above orbital plane
View from above satellite
View from above satellite

Ground track
Ground track

The orbit data is extracted from the following two-line orbital elements,

1 15354U 84108B   15245.83510629 +.00004861 +00000-0 +14279-3 0  9995
2 15354 057.0107 059.4996 0009463 327.6817 032.3654 15.36936511697227
Epoch (UTC): 02 September 2015 20:02:33
Eccentricity: 0.0009463
inclination: 57.0107°
perigee height: 449 km
apogee height: 461 km
right ascension of ascending node: 59.4996°
argument of perigee: 327.6817°
revolutions per day: 15.36936511
mean anomaly at epoch: 32.3654°
orbit number at epoch: 69722

The dashed part of the orbit path shows where the satellite is in the earth's shadow,  

DLR